ABS-6

Last updated on May 21, 2019, 3:10 a.m. UTC

1 25924U 99053A   19140.12633661 -.00000129  00000-0  00000+0 0  9993
2 25924   0.0230  30.0899 0002472  53.8286 358.0987  1.00272220 71953
UTC
Height (km)
Latitude
Longitude
Inclination
Orbital Period
UTC large
Height (km)
Speed (km/s)
/
Latitude / Longitude
Inclination (degrees)
Orbital Period (minutes)
Azimuth
Elevation
Range (km)
Doppler Factor
iOS Compass Heading
iOS Angle

Next 30 passes for location: Hong Kong

Rise time Rise Azimuth (degrees) Set time Set Azimuth (degrees) Duration Max altitude (degrees)

No matching passes for this satellites